This is the latest recevied weather packets stored in our database for station/object VE3VGJ. If no packets are shown the sender has not sent any weather packets the latest 1 day(s).
| Time | Temp. | Humidity | Pressure | Rain* | Wind** | Luminosity | Snow |
|---|---|---|---|---|---|---|---|
| 1778090894 | 7.22° C | 84% | 1010.1 hPa | 0 mm | - | 185 W/m² | - |
| 1778089075 | 7.22° C | 84% | 1010.3 hPa | 0 mm | - | 244 W/m² | - |
| 1778088772 | 7.22° C | 86% | 1010.2 hPa | 0 mm | - | 260 W/m² | - |
| 1778087863 | 6.67° C | 89% | 1010.3 hPa | 0 mm | - | 190 W/m² | - |
| 1778087560 | 6.67° C | 90% | 1010 hPa | 0 mm | - | 224 W/m² | - |
| 1778083923 | 6.67° C | 89% | 1010.4 hPa | 0 mm | - | 195 W/m² | - |
| 1778083317 | 6.11° C | 89% | 1010.3 hPa | 0 mm | - | 208 W/m² | - |
| 1778083015 | 6.67° C | 89% | 1010 hPa | 0 mm | - | 187 W/m² | - |
| 1778082712 | 6.11° C | 92% | 1009.9 hPa | 0 mm | - | 203 W/m² | - |
| 1778081574 | 6.11° C | 92% | 1010 hPa | 0 mm | - | 180 W/m² | - |
| 1778078848 | 6.67° C | 91% | 1009.9 hPa | 0 mm | - | 278 W/m² | - |
| 1778078545 | 6.67° C | 90% | 1010 hPa | 0 mm | - | 222 W/m² | - |
| 1778077940 | 6.67° C | 93% | 1009.8 hPa | 0 mm | - | 280 W/m² | - |
| 1778077336 | 6.67° C | 92% | 1009.8 hPa | 0 mm | - | 243 W/m² | - |
| 1778075519 | 6.11° C | 94% | 1009.9 hPa | 0 mm | - | 186 W/m² | - |
| 1778072488 | 5.56° C | 95% | 1009.7 hPa | 0 mm | - | 49 W/m² | - |
| 1778070675 | 5.56° C | 95% | 1009.2 hPa | 0 mm | - | 45 W/m² | - |
| 1778069161 | 5.56° C | 95% | 1009.2 hPa | 0 mm | - | 47 W/m² | - |
| 1778068254 | 5.56° C | 95% | 1009.2 hPa | 0 mm | - | 45 W/m² | - |
| 1778067649 | 5.56° C | 95% | 1009 hPa | 0 mm | - | 46 W/m² | - |
| 1778067044 | 5.56° C | 95% | 1008.8 hPa | 1.78 mm | - | 39 W/m² | - |
| 1778066740 | 5.56° C | 95% | 1009 hPa | 1.78 mm | - | 40 W/m² | - |
| 1778065832 | 5.56° C | 95% | 1009 hPa | 0 mm | - | 20 W/m² | - |
| 1778065530 | 5.56° C | 95% | 1009.1 hPa | 0 mm | - | 11 W/m² | - |
| 1778064923 | 5.56° C | 95% | 1009 hPa | 1.27 mm | - | 15 W/m² | - |
* Rain latest hour (hover to see other rain measurements)
** Current wind speed in m/s (hover to see current wind gust speed)